NOAA 16 DEB, 41379

Orbit data source: Space-Track

NOAA 16 DEB, 41379 is space debris in SSO originally from a launch on Thu, 21 Sep 2000 UTC launched from the Air Force Western Test Range (AFWTR). Debris objects in space refer to the collection of defunct objects orbiting the Earth. Examples of debris include non-operational satellites, rocket bodies, and fragments generated from explosions, collisions, or faulty payload assembly.

Loading next visibility...
Identifier
41379, 2000-055JY
Orbit
SSO
Country
Flag of USUS
Related business
Manufacturer
Unknown
Mission
Spacecraft
Bus & Motor
Unknown
Mass
Unknown
Launch date (UTC)
2000-09-21 (26 years ago)
Launch vehicle
Unknown
Launch site
Air Force Western Test Range (AFWTR)
Object type
Payload
Rocket body
Debris
Shape & HBR
Unknown shape, 0.1 m
Radar Cross Section
Medium (>0.1 m² and <1 m²)

Expand to show TLE details & history
Last TLE update: 2 days ago

TLE from 2 days ago
0 NOAA 16 DEB
1 41379U 00055JY  26171.14778141  .00005162  00000-0  13825-2 0  9999
2 41379  98.8447 316.6448 0024219  77.6441 282.7459 14.48508798542849
Epoch: 2026-06-20T03:32Z
TLE epoch observation values (Epoch: 2026-06-20T03:32:48.313Z)
Latitude
-0.00013°
Longitude
-4.92306°
Altitude
729.713 km
Speed
7.492 km/s
True Right ascension
21h 06m 34s
True Declination
0° 00' 00"
Sunlit
Object was in full shadow at epoch
Visualization orbit readout
Latitude
Unknown
Longitude
Unknown
Altitude
Unknown
Speed
Unknown
Apparent Right ascension
Unknown
Apparent Declination
Unknown
Sunlit
N/A
Visualization observer readout
Local Sidereal Time
23:18:49
Azimuth
Unknown
Elevation
Unknown
Doppler factor
Unknown
Orbital elements
Apogee altitude
744.86 km
Perigee altitude
710.441 km
Semi-major axis
7,105.787 km
Eccentricity
0.00242
Inclination
98.8447°
RAAN
316.6448°
Arg. of periapsis
77.6441°
True anomaly
282.47503°
Mean anomaly
282.7459°
Eccentric anomaly
282.61048°
Mean motion
3.62347 °/min
Orbital period
99.35 mins
BSTAR
0.0013825
Loading maneuver chart data...
Computing Atmospheric mass density...
Loading historical data...
Loading historical data...
Loading historical data...
Loading historical data...
Loading historical data...
Loading historical data...
Loading historical data...

Documentation

Showing up to 5 results
|